Tracking 29892 objects as of 21-Nov-2024
HD Live streaming from Space Station
objects crossing your sky now

COSMOS 397 DEB

Track COSMOS 397 DEB now!
10-day predictions


NORAD ID: 5091
Int'l Code: 1971-015S
Perigee: 527.8 km
Apogee: 1,268.1 km
Inclination: 65.7 °
Period: 102.8 minutes
Semi major axis: 7268 km
RCS: 0.1458 m2 (medium)
Launch date: February 25, 1971
Source: Commonwealth of Independent States (former USSR) (CIS)
Launch site: TYURATAM MISSILE AND SPACE COMPLEX (TTMTR)

Note: This is SATELLITE DEBRIS
Your satellite tracking list
Your tracking list is empty




NASA's NSSDC Master Catalog

Two Line Element Set (TLE):
1 05091U 71015S   24325.77148247  .00014828  00000-0  31467-2 0  9991
2 05091  65.7079 242.4710 0509250 298.4915  56.5767 14.00856983622965
Source of the keplerian elements: AFSPC